{"data":{"norad_id":53080,"intl_designator":"2022-077AP","name":"STARLINK-4330","alt_names":[],"object_type":"PAYLOAD","status":"ACTIVE","operator":null,"country":"US","launch_date":"2022-07-11","launch_site_code":"AFWTR","launch_vehicle":null,"mission":null,"orbit_class":"UNKNOWN","rcs_meters":null,"size_class":null,"mass_kg":null,"dimensions":null,"purposes":["comms"],"wikipedia_slug":null,"has_3d_model":false,"image_url":null,"decayed_at":null,"tle_current":{"epoch":"2026-05-25T04:28:37.912224Z","epoch_age_seconds":52924,"freshness":"FRESH","line1":"1 53080U 22077AP  26145.18654991  .00002674  00000+0  18934-3 0  9991","line2":"2 53080  97.4466 326.2233 0000847 122.5550 237.5759 15.05641085212495","mean_motion":15.05641085,"eccentricity":8.47e-5,"inclination_deg":97.4466,"raan_deg":326.2233,"arg_perigee_deg":122.555,"mean_anomaly_deg":237.5759,"bstar":0.00018934,"rev_number":21249,"period_min":95.640323204916,"perigee_km":548.95172593784,"apogee_km":550.12527416755,"semimajor_km":6927.6755000527,"source":"CELESTRAK","updated_at":"2026-05-25T13:38:17.313503Z"}}}